Flag for Germany Weather past 2 weeks in Hamburg, Hamburg, Germany

Now
73 °F

Broken clouds.


Feels Like: 76 °F
Forecast: 58 / 74 °F
Wind: 10 mph from Northwest

Location: Hamburg-Fuhlsbuettel

Current Time: Jul 30, 2014 at 1:16:25 PM

Latest Report: Jul 30, 2014 at 12:50 PM


Visibility: N/A

Pressure: 29.80 "Hg

Humidity: 69%

Dew point: 63 °F

Location of HamburgLocation

Historic Weather in Hamburg — Graph

°F

Hamburg temperature yesterday

Maximum temperature yesterday: 84 °F (at 1:20 PM)
Minimum temperature yesterday: 61 °F (at 5:50 AM)
Average temperature yesterday: 74 °F

Past Weeks' High & Low Weather Summary

 TemperatureHumidityPressure
High88 °F (Jul 19, 2:20 PM)100% (Jul 16, 4:50 AM)30.18 "Hg (Jul 16, 4:50 AM)
Low52 °F (Jul 17, 4:20 AM)29% (Jul 19, 6:20 PM)29.74 "Hg (Jul 30, 2:20 AM)
Average71 °F70%29.99 "Hg
* Reported Jul 15 12:20 PM — Jul 30 12:20 PM, Hamburg, Weather by CustomWeather, © 2014

Note: Actual official high and low records may vary slightly from our data, if they occured in-between our weather recording intervals... More about our weather records

Advertising

Hamburg weather history for previous 24 hours

 ConditionsComfort  
Time TempWeatherWind HumidityBarometerVisibility
12:20 PM
Jul 30
72 °FBroken clouds.12 mph73%29.80 "HgN/A
11:50 AM70 °FBroken clouds.12 mph73%29.80 "HgN/A
11:20 AM68 °FPartly sunny.12 mph83%29.80 "HgN/A
10:50 AM68 °FPartly sunny.12 mph78%29.80 "HgN/A
10:20 AM66 °FPartly sunny.12 mph83%29.80 "HgN/A
9:50 AM66 °FPartly sunny.8 mph83%29.80 "HgN/A
9:20 AM64 °FBroken clouds.7 mph88%29.77 "HgN/A
8:50 AM63 °FPartly sunny.8 mph88%29.77 "HgN/A
8:20 AM63 °FPartly sunny.10 mph88%29.77 "HgN/A
7:50 AM64 °FSunny.9 mph83%29.77 "Hg10 mi
7:20 AM64 °FSunny.9 mph83%29.77 "Hg10 mi
6:50 AM64 °FSunny.7 mph88%29.77 "Hg10 mi
6:20 AM64 °FLight rain. Passing clouds.6 mph88%29.77 "HgN/A
5:50 AM66 °FClear.6 mph83%29.77 "Hg10 mi
5:20 AM66 °FPassing clouds.8 mph83%29.74 "HgN/A
4:50 AM68 °FPassing clouds.8 mph78%29.74 "HgN/A
4:20 AM68 °FPassing clouds.6 mph78%29.74 "HgN/A
3:50 AM68 °FPassing clouds.5 mph78%29.74 "HgN/A
3:20 AM68 °FPassing clouds.6 mph78%29.77 "HgN/A
2:50 AM70 °FPassing clouds.8 mph73%29.77 "HgN/A
2:20 AM70 °FClear.7 mph78%29.74 "Hg10 mi
1:50 AM70 °FClear.7 mph78%29.77 "Hg10 mi
1:20 AM70 °FClear.7 mph78%29.77 "Hg10 mi
12:50 AM70 °FClear.6 mph78%29.77 "Hg10 mi
12:20 AM70 °FClear.6 mph78%29.77 "Hg10 mi
11:50 PM
Jul 29
72 °FClear.6 mph73%29.77 "Hg10 mi
11:20 PM72 °FClear.5 mph73%29.77 "Hg10 mi
10:50 PM73 °FPassing clouds.3 mph69%29.77 "HgN/A
10:20 PM73 °FSunny.3 mph65%29.77 "Hg10 mi
9:50 PM75 °FPassing clouds.3 mph61%29.77 "HgN/A
9:20 PM77 °FSunny.5 mph57%29.77 "Hg10 mi
8:50 PM77 °FPassing clouds.5 mph57%29.77 "HgN/A
8:20 PM79 °FSunny.5 mph54%29.77 "Hg10 mi
7:50 PM79 °FBroken clouds.6 mph54%29.77 "HgN/A
7:20 PM79 °FPassing clouds.6 mph54%29.77 "HgN/A
6:50 PM79 °FBroken clouds.9 mph54%29.77 "HgN/A
6:20 PM81 °FBroken clouds.12 mph51%29.77 "HgN/A
5:50 PM82 °FPartly sunny.10 mph48%29.77 "HgN/A
5:20 PM82 °FBroken clouds.10 mph51%29.77 "HgN/A
4:50 PM81 °FBroken clouds.9 mph58%29.77 "HgN/A
4:20 PM81 °FBroken clouds.7 mph58%29.77 "HgN/A
3:50 PM81 °FBroken clouds.8 mph54%29.80 "HgN/A
3:20 PM82 °FBroken clouds.7 mph51%29.80 "HgN/A
2:50 PM82 °FBroken clouds.8 mph51%29.80 "HgN/A
2:20 PM82 °FBroken clouds.7 mph51%29.83 "HgN/A
1:50 PM84 °FBroken clouds.8 mph48%29.83 "HgN/A
1:20 PM84 °FPartly sunny.8 mph48%29.83 "HgN/A
Weather by CustomWeather, © 2014

See weather overviewHow to use our weather pages